QPF
0.00 0.00 0.00 0.00 0.00 0.00 0.00 0.00 0.00 0.00 0.00 0.00 0.00 0.00 0.00 0.00 0.01 0.02 0.05 0.05 0.07 0.09 0.11 0.14 0.20 0.23 0.24 0.24 0.21 0.22 0.19 0.19 0.15 0.08 0.05 0.03 0.01 0.01 0.01 0.01 0.00 0.00 0.00 0.00
0.00 0.00 0.00 0.00 0.00 0.00 0.00 0.00 0.00 0.00 0.00 0.00 0.00 0.00 0.00 0.00 0.01 0.02 0.02 0.02 0.05 0.06 0.08 0.11 0.16 0.22 0.22 0.20 0.21 0.18 0.15 0.12 0.09 0.07 0.04 0.02 0.01 0.00 0.00 0.00 0.00 0.00 0.00 0.00
0.00 0.00 0.00 0.00 0.00 0.00 0.00 0.00 0.00 0.00 0.00 0.00 0.00 0.00 0.00 0.00 0.00 0.01 0.01 0.02 0.04 0.05 0.06 0.07 0.09 0.11 0.12 0.12 0.15 0.13 0.10 0.08 0.05 0.04 0.02 0.01 0.00 0.00 0.00 0.00 0.00 0.00 0.00 0.00
0.00 0.00 0.00 0.00 0.00 0.00 0.00 0.00 0.00 0.00 0.00 0.00 0.00 0.00 0.00 0.00 0.00 0.00 0.01 0.02 0.05 0.04 0.04 0.05 0.06 0.05 0.06 0.07 0.08 0.09 0.06 0.05 0.02 0.02 0.01 0.00 0.00 0.00 0.00 0.00 0.00 0.00 0.00 0.00
0.00 0.00 0.00 0.00 0.00 0.00 0.00 0.00 0.00 0.00 0.00 0.00 0.00 0.00 0.00 0.00 0.00 0.00 0.00 0.01 0.03 0.02 0.02 0.05 0.05 0.04 0.04 0.04 0.04 0.04 0.03 0.02 0.01 0.00 0.00 0.00 0.01 0.01 0.00 0.00 0.00 0.00 0.00 0.00
0.00 0.00 0.00 0.00 0.00 0.00 0.00 0.00 0.00 0.00 0.00 0.00 0.00 0.00 0.00 0.00 0.00 0.00 0.00 0.00 0.01 0.01 0.01 0.02 0.03 0.04 0.04 0.02 0.02 0.02 0.02 0.01 0.01 0.00 0.00 0.01 0.01 0.01 0.00 0.00 0.00 0.00 0.00 0.00
0.00 0.00 0.00 0.00 0.00 0.00 0.00 0.00 0.00 0.00 0.00 0.00 0.00 0.00 0.00 0.00 0.00 0.00 0.00 0.00 0.00 0.00 0.00 0.01 0.01 0.02 0.02 0.01 0.01 0.01 0.01 0.01 0.01 0.01 0.01 0.01 0.01 0.01 0.00 0.00 0.00 0.00 0.00 0.00
0.00 0.00 0.00 0.00 0.00 0.00 0.00 0.00 0.00 0.00 0.00 0.00 0.00 0.00 0.00 0.00 0.00 0.00 0.00 0.00 0.00 0.00 0.00 0.00 0.00 0.00 0.00 0.01 0.00 0.00 0.01 0.01 0.00 0.00 0.01 0.01 0.01 0.00 0.00 0.00 0.00 0.00 0.00 0.00
0.00 0.00 0.00 0.00 0.00 0.00 0.00 0.00 0.00 0.00 0.00 0.00 0.00 0.00 0.00 0.00 0.00 0.00 0.00 0.00 0.00 0.00 0.00 0.00 0.00 0.00 0.00 0.00 0.00 0.00 0.00 0.00 0.00 0.00 0.00 0.01 0.01 0.00 0.00 0.00 0.00 0.00 0.00 0.00
0.00 0.00 0.00 0.00 0.00 0.00 0.00 0.00 0.00 0.00 0.00 0.00 0.00 0.00 0.00 0.00 0.00 0.00 0.00 0.00 0.00 0.00 0.00 0.00 0.00 0.00 0.00 0.00 0.00 0.00 0.00 0.00 0.00 0.00 0.00 0.00 0.00 0.00 0.00 0.00 0.00 0.00 0.00 0.00
0.00 0.00 0.00 0.00 0.00 0.00 0.00 0.00 0.00 0.00 0.00 0.00 0.01 0.00 0.00 0.00 0.00 0.00 0.00 0.00 0.00 0.00 0.00 0.00 0.00 0.00 0.00 0.00 0.00 0.00 0.00 0.00 0.00 0.00 0.00 0.00 0.00 0.00 0.00 0.00 0.00 0.00 0.00 0.00
0.00 0.00 0.00 0.00 0.00 0.00 0.00 0.00 0.00 0.00 0.00 0.00 0.00 0.00 0.00 0.00 0.00 0.00 0.00 0.00 0.00 0.00 0.00 0.00 0.00 0.00 0.00 0.00 0.00 0.00 0.00 0.00 0.00 0.00 0.00 0.00 0.00 0.00 0.00 0.00 0.00 0.00 0.00 0.00
0.00 0.00 0.00 0.00 0.00 0.00 0.00 0.00 0.00 0.00 0.00 0.00 0.01 0.00 0.00 0.00 0.00 0.00 0.00 0.00 0.00 0.00 0.00 0.00 0.00 0.00 0.00 0.00 0.00 0.00 0.00 0.00 0.00 0.00 0.00 0.00 0.00 0.00 0.00 0.00 0.00 0.00 0.00 0.00
0.00 0.00 0.00 0.00 0.00 0.00 0.00 0.00 0.00 0.00 0.00 0.00 0.00 0.00 0.00 0.00 0.00 0.00 0.00 0.00 0.00 0.00 0.00 0.00 0.00 0.00 0.00 0.00 0.00 0.00 0.00 0.00 0.00 0.00 0.00 0.00 0.01 0.01 0.00 0.00 0.00 0.00 0.00 0.00
0.00 0.00 0.00 0.00 0.00 0.00 0.00 0.00 0.00 0.00 0.00 0.00 0.00 0.00 0.00 0.00 0.00 0.00 0.00 0.00 0.00 0.00 0.00 0.00 0.00 0.00 0.00 0.00 0.00 0.00 0.00 0.00 0.00 0.00 0.00 0.01 0.00 0.00 0.00 0.00 0.00 0.00 0.00 0.00
0.00 0.00 0.00 0.00 0.00 0.00 0.00 0.00 0.00 0.00 0.00 0.00 0.00 0.00 0.00 0.00 0.00 0.00 0.00 0.00 0.00 0.00 0.00 0.00 0.00 0.00 0.00 0.00 0.00 0.00 0.00 0.00 0.00 0.00 0.00 0.00 0.00 0.00 0.00 0.00 0.00 0.00 0.00 0.00
0.01 0.00 0.00 0.00 0.00 0.00 0.00 0.00 0.00 0.00 0.00 0.00 0.00 0.00 0.00 0.00 0.00 0.00 0.01 0.01 0.01 0.01 0.01 0.01 0.01 0.01 0.00 0.00 0.00 0.00 0.01 0.01 0.01 0.01 0.00 0.00 0.00 0.00 0.00 0.00 0.00 0.00 0.00 0.00
0.01 0.00 0.00 0.00 0.00 0.00 0.00 0.00 0.00 0.00 0.00 0.00 0.00 0.00 0.00 0.00 0.01 0.01 0.01 0.01 0.01 0.01 0.01 0.01 0.01 0.01 0.01 0.02 0.02 0.02 0.02 0.02 0.01 0.01 0.02 0.02 0.01 0.01 0.01 0.01 0.00 0.00 0.00 0.00
0.01 0.00 0.00 0.00 0.00 0.00 0.00 0.00 0.00 0.00 0.00 0.00 0.00 0.00 0.00 0.01 0.01 0.01 0.01 0.02 0.02 0.01 0.01 0.01 0.01 0.01 0.02 0.03 0.03 0.03 0.02 0.02 0.02 0.02 0.02 0.03 0.03 0.02 0.01 0.01 0.01 0.01 0.01 0.01
0.01 0.00 0.01 0.01 0.01 0.00 0.00 0.00 0.00 0.00 0.01 0.00 0.00 0.00 0.00 0.01 0.01 0.02 0.01 0.02 0.01 0.01 0.01 0.01 0.01 0.01 0.01 0.01 0.02 0.02 0.02 0.02 0.02 0.02 0.02 0.03 0.02 0.02 0.02 0.02 0.02 0.01 0.01 0.02
0.01 0.01 0.01 0.01 0.01 0.00 0.00 0.00 0.00 0.01 0.01 0.00 0.00 0.00 0.01 0.01 0.01 0.01 0.01 0.01 0.01 0.01 0.01 0.01 0.01 0.01 0.01 0.01 0.01 0.01 0.01 0.01 0.01 0.01 0.01 0.01 0.02 0.02 0.02 0.02 0.02 0.02 0.02 0.02
0.01 0.01 0.01 0.01 0.01 0.00 0.00 0.00 0.00 0.01 0.00 0.00 0.00 0.00 0.01 0.01 0.01 0.01 0.00 0.01 0.01 0.01 0.01 0.01 0.01 0.01 0.01 0.01 0.01 0.01 0.01 0.01 0.01 0.01 0.01 0.01 0.01 0.01 0.02 0.02 0.02 0.02 0.02 0.02
0.01 0.00 0.00 0.00 0.01 0.00 0.00 0.00 0.00 0.00 0.00 0.00 0.00 0.00 0.01 0.01 0.01 0.01 0.01 0.01 0.01 0.01 0.01 0.01 0.01 0.01 0.01 0.01 0.01 0.01 0.01 0.01 0.01 0.01 0.00 0.00 0.00 0.00 0.01 0.01 0.01 0.01 0.00 0.00
0.00 0.00 0.00 0.00 0.00 0.00 0.00 0.00 0.00 0.00 0.00 0.01 0.01 0.01 0.02 0.03 0.03 0.03 0.03 0.03 0.03 0.02 0.02 0.02 0.01 0.01 0.01 0.01 0.01 0.01 0.01 0.01 0.01 0.01 0.00 0.00 0.00 0.00 0.01 0.01 0.01 0.01 0.01 0.01
0.00 0.00 0.00 0.00 0.00 0.00 0.00 0.00 0.00 0.01 0.01 0.01 0.02 0.03 0.03 0.04 0.04 0.03 0.03 0.02 0.02 0.01 0.02 0.01 0.01 0.00 0.00 0.00 0.00 0.00 0.00 0.00 0.00 0.00 0.00 0.00 0.00 0.00 0.00 0.00 0.00 0.00 0.00 0.00
0.00 0.00 0.00 0.01 0.00 0.00 0.00 0.01 0.01 0.02 0.03 0.04 0.05 0.06 0.06 0.06 0.05 0.03 0.02 0.01 0.00 0.00 0.00 0.00 0.00 0.00 0.00 0.00 0.00 0.00 0.00 0.00 0.00 0.00 0.00 0.00 0.00 0.00 0.00 0.00 0.00 0.00 0.00 0.00
MSLP
1012.61 1012.66 1012.56 1012.34 1012.08 1011.83 1011.65 1011.56 1011.58 1011.66 1011.78 1011.88 1011.95 1011.96 1011.94 1011.89 1011.86 1011.90 1012.02 1012.25 1012.57 1012.98 1013.44 1013.93 1014.43 1014.91 1015.38 1015.83 1016.26 1016.69 1017.11 1017.51 1017.88 1018.21 1018.49 1018.72 1018.89 1019.02 1019.13 1019.22 1019.31 1019.40 1019.50 1019.59
1012.62 1012.61 1012.45 1012.21 1011.94 1011.71 1011.57 1011.54 1011.60 1011.71 1011.83 1011.91 1011.94 1011.90 1011.81 1011.73 1011.70 1011.76 1011.95 1012.26 1012.69 1013.21 1013.76 1014.31 1014.83 1015.30 1015.72 1016.10 1016.46 1016.81 1017.17 1017.53 1017.88 1018.22 1018.51 1018.76 1018.95 1019.08 1019.19 1019.27 1019.36 1019.45 1019.57 1019.69
1012.51 1012.44 1012.25 1012.00 1011.76 1011.58 1011.51 1011.53 1011.64 1011.77 1011.88 1011.92 1011.88 1011.77 1011.62 1011.49 1011.44 1011.53 1011.77 1012.17 1012.71 1013.33 1013.97 1014.59 1015.13 1015.59 1015.96 1016.28 1016.56 1016.84 1017.14 1017.47 1017.81 1018.15 1018.46 1018.72 1018.93 1019.07 1019.18 1019.25 1019.34 1019.43 1019.55 1019.70
1012.25 1012.15 1011.95 1011.73 1011.54 1011.44 1011.45 1011.55 1011.71 1011.87 1011.96 1011.96 1011.85 1011.65 1011.42 1011.23 1011.14 1011.23 1011.51 1011.98 1012.60 1013.31 1014.03 1014.70 1015.27 1015.73 1016.08 1016.34 1016.56 1016.79 1017.04 1017.34 1017.67 1018.02 1018.34 1018.62 1018.84 1019.00 1019.10 1019.18 1019.25 1019.34 1019.47 1019.63
1011.86 1011.75 1011.58 1011.41 1011.31 1011.31 1011.42 1011.62 1011.84 1012.03 1012.11 1012.06 1011.88 1011.60 1011.28 1011.01 1010.87 1010.93 1011.21 1011.71 1012.38 1013.14 1013.92 1014.63 1015.23 1015.69 1016.03 1016.27 1016.46 1016.65 1016.87 1017.15 1017.47 1017.82 1018.16 1018.46 1018.70 1018.86 1018.96 1019.03 1019.10 1019.18 1019.31 1019.49
1011.40 1011.30 1011.18 1011.09 1011.09 1011.21 1011.44 1011.73 1012.03 1012.25 1012.34 1012.25 1012.01 1011.64 1011.23 1010.87 1010.66 1010.66 1010.91 1011.39 1012.06 1012.84 1013.64 1014.38 1015.00 1015.47 1015.81 1016.04 1016.22 1016.39 1016.61 1016.88 1017.20 1017.56 1017.91 1018.22 1018.46 1018.64 1018.75 1018.82 1018.88 1018.97 1019.10 1019.30
1010.91 1010.85 1010.79 1010.80 1010.91 1011.15 1011.49 1011.88 1012.25 1012.51 1012.60 1012.49 1012.20 1011.76 1011.27 1010.82 1010.52 1010.44 1010.62 1011.04 1011.67 1012.42 1013.20 1013.94 1014.56 1015.05 1015.40 1015.64 1015.84 1016.02 1016.24 1016.52 1016.85 1017.21 1017.56 1017.88 1018.14 1018.32 1018.44 1018.52 1018.59 1018.69 1018.83 1019.04
1010.45 1010.43 1010.45 1010.55 1010.77 1011.12 1011.55 1012.02 1012.44 1012.74 1012.84 1012.72 1012.40 1011.91 1011.35 1010.83 1010.44 1010.27 1010.34 1010.67 1011.21 1011.89 1012.62 1013.33 1013.94 1014.44 1014.81 1015.08 1015.31 1015.52 1015.76 1016.05 1016.38 1016.74 1017.10 1017.43 1017.69 1017.89 1018.03 1018.13 1018.22 1018.34 1018.50 1018.73
1010.03 1010.07 1010.16 1010.35 1010.66 1011.08 1011.58 1012.10 1012.55 1012.86 1012.97 1012.85 1012.51 1012.01 1011.41 1010.83 1010.37 1010.10 1010.07 1010.29 1010.71 1011.29 1011.94 1012.59 1013.17 1013.66 1014.06 1014.37 1014.63 1014.88 1015.15 1015.46 1015.80 1016.17 1016.53 1016.85 1017.13 1017.34 1017.51 1017.64 1017.77 1017.92 1018.11 1018.36
1009.66 1009.76 1009.92 1010.17 1010.54 1011.00 1011.52 1012.05 1012.50 1012.81 1012.92 1012.81 1012.48 1011.97 1011.38 1010.77 1010.27 1009.92 1009.79 1009.89 1010.19 1010.64 1011.19 1011.76 1012.31 1012.79 1013.19 1013.54 1013.84 1014.13 1014.44 1014.77 1015.12 1015.48 1015.84 1016.17 1016.45 1016.69 1016.89 1017.06 1017.24 1017.44 1017.67 1017.95
1009.32 1009.48 1009.69 1009.99 1010.37 1010.83 1011.33 1011.82 1012.24 1012.53 1012.63 1012.53 1012.23 1011.77 1011.20 1010.62 1010.11 1009.72 1009.52 1009.52 1009.70 1010.03 1010.46 1010.94 1011.43 1011.88 1012.29 1012.66 1013.00 1013.33 1013.66 1014.01 1014.37 1014.73 1015.08 1015.41 1015.70 1015.96 1016.20 1016.42 1016.65 1016.90 1017.18 1017.49
1008.98 1009.20 1009.46 1009.78 1010.15 1010.57 1011.01 1011.44 1011.79 1012.04 1012.13 1012.04 1011.79 1011.39 1010.91 1010.39 1009.91 1009.54 1009.30 1009.22 1009.30 1009.52 1009.84 1010.23 1010.64 1011.05 1011.45 1011.83 1012.19 1012.54 1012.90 1013.25 1013.61 1013.96 1014.30 1014.63 1014.93 1015.21 1015.48 1015.75 1016.03 1016.33 1016.65 1017.00
1008.66 1008.93 1009.22 1009.54 1009.88 1010.24 1010.60 1010.93 1011.20 1011.39 1011.46 1011.40 1011.22 1010.92 1010.55 1010.14 1009.75 1009.42 1009.19 1009.08 1009.09 1009.21 1009.43 1009.72 1010.06 1010.41 1010.78 1011.15 1011.51 1011.87 1012.22 1012.57 1012.92 1013.25 1013.58 1013.89 1014.19 1014.49 1014.78 1015.09 1015.42 1015.76 1016.12 1016.49
1008.38 1008.69 1009.00 1009.31 1009.60 1009.88 1010.14 1010.37 1010.55 1010.68 1010.74 1010.72 1010.61 1010.44 1010.20 1009.94 1009.68 1009.44 1009.26 1009.15 1009.12 1009.18 1009.31 1009.51 1009.76 1010.05 1010.37 1010.70 1011.04 1011.38 1011.72 1012.05 1012.38 1012.69 1012.99 1013.28 1013.57 1013.87 1014.18 1014.50 1014.85 1015.22 1015.60 1015.98
1008.20 1008.53 1008.85 1009.13 1009.37 1009.56 1009.71 1009.84 1009.93 1010.01 1010.06 1010.08 1010.07 1010.03 1009.96 1009.87 1009.76 1009.65 1009.55 1009.48 1009.45 1009.46 1009.53 1009.65 1009.81 1010.03 1010.27 1010.55 1010.85 1011.15 1011.46 1011.76 1012.05 1012.33 1012.60 1012.86 1013.13 1013.41 1013.71 1014.04 1014.38 1014.75 1015.12 1015.48
1008.16 1008.50 1008.81 1009.05 1009.22 1009.32 1009.38 1009.40 1009.42 1009.45 1009.50 1009.57 1009.66 1009.76 1009.86 1009.95 1010.02 1010.05 1010.07 1010.07 1010.06 1010.06 1010.08 1010.13 1010.21 1010.34 1010.52 1010.73 1010.97 1011.22 1011.48 1011.74 1011.99 1012.22 1012.45 1012.68 1012.91 1013.16 1013.43 1013.73 1014.05 1014.38 1014.71 1015.04
1008.30 1008.63 1008.90 1009.08 1009.17 1009.19 1009.15 1009.08 1009.03 1009.03 1009.09 1009.21 1009.40 1009.64 1009.91 1010.17 1010.41 1010.61 1010.75 1010.84 1010.88 1010.89 1010.88 1010.88 1010.91 1010.96 1011.06 1011.20 1011.37 1011.57 1011.78 1011.99 1012.19 1012.39 1012.58 1012.76 1012.95 1013.16 1013.38 1013.62 1013.88 1014.15 1014.42 1014.67
1008.62 1008.90 1009.10 1009.21 1009.21 1009.13 1009.00 1008.87 1008.76 1008.73 1008.80 1008.97 1009.25 1009.62 1010.04 1010.47 1010.87 1011.23 1011.50 1011.69 1011.80 1011.84 1011.83 1011.81 1011.79 1011.79 1011.82 1011.90 1012.01 1012.15 1012.31 1012.48 1012.65 1012.81 1012.96 1013.10 1013.24 1013.39 1013.55 1013.72 1013.90 1014.08 1014.26 1014.43
1009.05 1009.24 1009.35 1009.36 1009.27 1009.10 1008.88 1008.68 1008.53 1008.48 1008.57 1008.79 1009.15 1009.62 1010.17 1010.74 1011.29 1011.78 1012.19 1012.48 1012.67 1012.76 1012.79 1012.76 1012.72 1012.69 1012.69 1012.72 1012.79 1012.89 1013.02 1013.15 1013.29 1013.42 1013.54 1013.64 1013.74 1013.83 1013.92 1014.00 1014.09 1014.18 1014.26 1014.33
1009.48 1009.57 1009.56 1009.45 1009.26 1009.00 1008.71 1008.46 1008.28 1008.23 1008.33 1008.59 1009.02 1009.57 1010.22 1010.90 1011.58 1012.19 1012.70 1013.10 1013.38 1013.54 1013.61 1013.62 1013.59 1013.56 1013.55 1013.56 1013.61 1013.69 1013.79 1013.91 1014.03 1014.14 1014.23 1014.31 1014.36 1014.40 1014.42 1014.42 1014.42 1014.40 1014.38 1014.36
1009.81 1009.77 1009.63 1009.41 1009.11 1008.77 1008.44 1008.15 1007.96 1007.91 1008.04 1008.34 1008.82 1009.44 1010.16 1010.93 1011.69 1012.39 1013.00 1013.49 1013.86 1014.10 1014.23 1014.29 1014.31 1014.30 1014.30 1014.32 1014.37 1014.45 1014.55 1014.66 1014.77 1014.87 1014.95 1015.00 1015.02 1015.00 1014.96 1014.90 1014.81 1014.71 1014.61 1014.51
1009.94 1009.77 1009.51 1009.18 1008.81 1008.41 1008.04 1007.75 1007.58 1007.56 1007.72 1008.07 1008.59 1009.25 1010.02 1010.83 1011.65 1012.42 1013.09 1013.66 1014.10 1014.41 1014.62 1014.75 1014.82 1014.86 1014.90 1014.94 1015.01 1015.10 1015.20 1015.32 1015.43 1015.52 1015.58 1015.61 1015.61 1015.55 1015.46 1015.34 1015.20 1015.03 1014.87 1014.71
1009.83 1009.55 1009.19 1008.79 1008.36 1007.95 1007.59 1007.33 1007.21 1007.24 1007.45 1007.84 1008.40 1009.09 1009.87 1010.71 1011.55 1012.34 1013.05 1013.66 1014.15 1014.54 1014.81 1015.00 1015.14 1015.23 1015.32 1015.40 1015.49 1015.59 1015.71 1015.82 1015.92 1016.01 1016.06 1016.07 1016.04 1015.96 1015.84 1015.68 1015.49 1015.30 1015.10 1014.92
1009.51 1009.15 1008.74 1008.31 1007.88 1007.50 1007.19 1007.00 1006.95 1007.07 1007.35 1007.79 1008.37 1009.07 1009.86 1010.68 1011.50 1012.28 1012.99 1013.61 1014.13 1014.55 1014.87 1015.12 1015.31 1015.45 1015.57 1015.69 1015.80 1015.91 1016.03 1016.13 1016.22 1016.29 1016.32 1016.32 1016.26 1016.16 1016.02 1015.84 1015.64 1015.43 1015.23 1015.05
1009.09 1008.70 1008.28 1007.87 1007.49 1007.18 1006.97 1006.89 1006.95 1007.16 1007.52 1008.02 1008.62 1009.32 1010.08 1010.85 1011.62 1012.35 1013.02 1013.61 1014.12 1014.54 1014.88 1015.16 1015.38 1015.56 1015.71 1015.84 1015.96 1016.07 1016.17 1016.26 1016.33 1016.37 1016.37 1016.34 1016.27 1016.15 1016.00 1015.82 1015.62 1015.42 1015.24 1015.08
1008.72 1008.35 1007.98 1007.63 1007.34 1007.15 1007.07 1007.12 1007.31 1007.63 1008.07 1008.62 1009.24 1009.91 1010.61 1011.31 1011.99 1012.63 1013.22 1013.74 1014.20 1014.59 1014.92 1015.20 1015.42 1015.61 1015.77 1015.90 1016.01 1016.10 1016.18 1016.23 1016.26 1016.26 1016.24 1016.17 1016.08 1015.95 1015.80 1015.63 1015.45 1015.27 1015.11 1014.98
Thickness
5796 5789 5788 5791 5793 5787 5783 5778 5775 5778 5781 5772 5767 5764 5765 5760 5751 5743 5738 5734 5729 5727 5728 5726 5725 5725 5723 5721 5721 5721 5722 5721 5720 5720 5719 5718 5718 5718 5717 5716 5712 5712 5712 5711
5786 5785 5796 5798 5795 5789 5784 5777 5778 5779 5778 5770 5767 5765 5767 5761 5753 5748 5742 5737 5733 5728 5725 5724 5722 5721 5720 5719 5719 5719 5720 5720 5719 5719 5720 5719 5719 5718 5718 5716 5711 5711 5710 5710
5780 5794 5800 5793 5790 5786 5785 5780 5777 5772 5774 5772 5765 5762 5762 5761 5758 5752 5748 5744 5739 5733 5727 5724 5722 5721 5720 5719 5719 5721 5720 5719 5720 5719 5720 5718 5717 5716 5716 5714 5713 5711 5709 5709
5788 5799 5794 5790 5789 5787 5780 5788 5780 5773 5766 5767 5760 5752 5759 5762 5757 5754 5751 5748 5743 5739 5734 5729 5726 5723 5722 5722 5722 5721 5719 5719 5719 5719 5721 5720 5718 5718 5718 5716 5715 5711 5709 5709
5787 5794 5789 5785 5790 5790 5784 5786 5780 5774 5768 5764 5764 5755 5762 5764 5757 5758 5757 5753 5749 5745 5740 5734 5730 5728 5727 5726 5725 5723 5721 5720 5720 5721 5721 5719 5720 5721 5721 5717 5714 5712 5711 5709
5792 5802 5797 5795 5797 5794 5787 5780 5776 5774 5774 5755 5758 5752 5755 5766 5763 5763 5762 5758 5753 5749 5744 5739 5735 5732 5729 5729 5727 5726 5723 5721 5721 5721 5721 5720 5720 5719 5718 5715 5715 5713 5714 5712
5782 5793 5800 5801 5788 5786 5781 5770 5760 5757 5756 5756 5763 5755 5759 5772 5774 5771 5766 5762 5758 5754 5749 5743 5739 5735 5733 5731 5730 5729 5726 5724 5724 5723 5722 5722 5721 5719 5717 5717 5717 5716 5717 5716
5772 5776 5795 5795 5789 5783 5780 5774 5752 5739 5746 5759 5762 5756 5768 5778 5778 5777 5774 5769 5763 5758 5755 5749 5745 5741 5738 5736 5735 5733 5730 5728 5728 5726 5724 5724 5722 5723 5724 5720 5721 5719 5719 5719
5778 5777 5794 5796 5796 5788 5775 5775 5781 5762 5757 5750 5760 5765 5773 5776 5774 5773 5772 5768 5764 5762 5760 5756 5752 5749 5745 5743 5741 5739 5735 5733 5732 5730 5727 5725 5724 5725 5725 5723 5720 5721 5719 5718
5788 5771 5786 5788 5788 5783 5783 5779 5767 5758 5737 5736 5750 5757 5762 5766 5767 5770 5770 5768 5768 5767 5764 5762 5758 5755 5753 5750 5747 5744 5741 5737 5736 5733 5731 5730 5728 5726 5725 5723 5722 5721 5719 5717
5789 5770 5775 5777 5771 5774 5767 5765 5764 5763 5755 5737 5734 5751 5776 5771 5772 5771 5772 5773 5772 5770 5769 5767 5763 5761 5758 5755 5752 5747 5744 5741 5738 5737 5734 5732 5731 5729 5726 5724 5722 5720 5718 5715
5785 5776 5768 5774 5784 5784 5778 5773 5765 5749 5746 5747 5743 5755 5781 5778 5778 5776 5776 5775 5775 5774 5773 5771 5767 5764 5760 5757 5755 5750 5748 5744 5742 5740 5736 5733 5731 5729 5727 5725 5723 5720 5717 5715
5779 5767 5751 5753 5761 5768 5769 5771 5769 5763 5752 5748 5742 5754 5778 5778 5776 5775 5773 5772 5772 5771 5771 5770 5767 5764 5761 5759 5757 5754 5751 5748 5746 5742 5738 5735 5732 5730 5728 5727 5724 5720 5717 5714
5782 5769 5761 5754 5763 5770 5763 5765 5765 5759 5752 5750 5751 5759 5769 5770 5768 5767 5768 5769 5769 5768 5767 5767 5764 5762 5761 5759 5756 5754 5752 5751 5748 5744 5739 5736 5734 5732 5729 5726 5723 5720 5716 5712
5775 5764 5767 5771 5775 5772 5768 5765 5762 5756 5757 5752 5757 5760 5765 5761 5759 5758 5761 5763 5764 5763 5762 5761 5760 5758 5756 5754 5752 5751 5749 5748 5746 5742 5738 5736 5733 5731 5727 5724 5721 5718 5714 5711
5768 5761 5761 5759 5766 5765 5760 5763 5762 5759 5759 5757 5758 5758 5760 5755 5754 5751 5753 5755 5755 5756 5756 5756 5754 5752 5749 5748 5746 5746 5744 5743 5740 5737 5735 5734 5731 5727 5724 5721 5718 5714 5711 5708
5761 5754 5747 5749 5759 5753 5745 5761 5761 5759 5763 5759 5752 5755 5752 5745 5739 5740 5743 5746 5746 5747 5748 5747 5746 5744 5743 5742 5741 5738 5737 5736 5732 5729 5728 5726 5724 5721 5719 5717 5713 5710 5706 5703
5753 5747 5747 5746 5740 5722 5756 5769 5765 5759 5760 5760 5753 5748 5744 5736 5730 5731 5733 5734 5733 5734 5735 5735 5735 5734 5734 5733 5732 5730 5728 5725 5722 5719 5717 5716 5714 5712 5710 5707 5705 5702 5700 5697
5750 5742 5741 5738 5731 5737 5752 5757 5756 5748 5748 5754 5747 5740 5736 5732 5728 5722 5722 5723 5722 5723 5723 5722 5723 5722 5720 5719 5718 5717 5715 5711 5709 5707 5704 5703 5702 5699 5697 5695 5693 5691 5689 5687
5736 5736 5734 5729 5720 5720 5743 5753 5755 5746 5736 5748 5743 5735 5733 5729 5722 5710 5710 5711 5709 5709 5710 5709 5708 5707 5704 5704 5703 5701 5699 5697 5695 5693 5691 5690 5688 5687 5685 5683 5682 5681 5678 5677
5719 5720 5723 5722 5719 5733 5744 5747 5744 5725 5728 5740 5739 5734 5730 5725 5720 5706 5703 5699 5697 5695 5696 5696 5694 5691 5688 5688 5686 5684 5683 5681 5680 5679 5677 5675 5674 5673 5672 5671 5669 5668 5667 5665
5717 5716 5714 5718 5712 5720 5737 5737 5732 5729 5734 5734 5732 5729 5722 5712 5704 5697 5692 5687 5685 5683 5682 5681 5679 5675 5673 5672 5671 5669 5666 5666 5665 5664 5662 5661 5660 5661 5660 5658 5657 5655 5653 5654
5716 5721 5726 5724 5722 5726 5734 5733 5731 5731 5727 5726 5724 5720 5711 5701 5693 5687 5681 5677 5674 5671 5669 5668 5664 5660 5659 5659 5658 5655 5652 5653 5652 5650 5649 5648 5648 5646 5646 5645 5645 5644 5642 5641
5710 5713 5716 5715 5722 5723 5724 5725 5723 5723 5721 5719 5716 5710 5702 5692 5684 5677 5672 5666 5662 5660 5658 5655 5652 5649 5647 5646 5645 5643 5643 5641 5640 5638 5637 5636 5635 5635 5633 5631 5632 5630 5627 5625
5701 5705 5708 5707 5712 5714 5713 5713 5713 5713 5712 5709 5704 5699 5691 5682 5674 5667 5662 5657 5654 5651 5648 5645 5641 5639 5638 5637 5635 5633 5631 5630 5628 5627 5626 5626 5626 5623 5618 5619 5615 5613 5609 5604
5695 5694 5695 5698 5699 5701 5699 5703 5705 5701 5698 5695 5689 5683 5678 5672 5663 5658 5652 5648 5644 5641 5638 5635 5633 5631 5629 5627 5625 5622 5620 5618 5616 5616 5615 5615 5614 5611 5609 5606 5605 5600 5594 5588